Location: Deuil
(48.9767°N, 2.3272°E)
Time: 03:20:27
(UTC+00:00)

Cosmos 2360 Rocket - Pass Details

Date: 27 May 2022
Orbit: 832 x 846 km, 71.0° (Epoch: 03 July)

Event Time Altitude Azimuth Distance (km) Brightness Sun altitude
Rises 01:05:01 0° 267° (W) 3,387 5.1 -17.7°
Reaches altitude 10° 01:08:28 10° 288° (WNW) 2,459 4.6 -17.5°
Maximum altitude 01:11:53 16° 326° (NW) 2,063 4.7 -17.3°
Drops below altitude 10° 01:15:19 10° 4° (N) 2,471 5.8 -17.1°
Sets 01:18:49 0° 25° (NNE) 3,412 7.2 -16.9°
